Home > Time Zones > World Clock > Weather > Spain > Cadiz > Past weeks

Flag for Spain Weather past 2 weeks in Cadiz, Cádiz, Spain

Now
84 °F

Partly sunny.


Feels Like: 84 °F
Forecast: 72 / 83 °F
Wind: 7 mph from East

Location: Rota Airport

Current Time: Sep 30, 2014 at 5:56:32 PM

Latest Report: Sep 30, 2014 at 5:00 PM


Visibility: N/A

Pressure: 30.07 "Hg

Humidity: 43%

Dew point: 59 °F

Location of CadizLocation

Historic Weather in Cadiz — Graph

°F

Cadiz temperature yesterday

Maximum temperature yesterday: 81 °F (at 2:00 PM)
Minimum temperature yesterday: 63 °F (at 6:00 AM)
Average temperature yesterday: 71 °F

Past Weeks' High & Low Weather Summary

 TemperatureHumidityPressure
High84 °F (Sep 30, 3:00 PM)94% (Sep 17, 6:00 AM)30.18 "Hg (Sep 17, 6:00 AM)
Low63 °F (Sep 23, 8:00 AM)45% (Sep 30, 3:00 PM)29.77 "Hg (Sep 16, 5:00 AM)
Average71 °F77%29.99 "Hg
* Reported Sep 15 4:00 PM — Sep 30 4:00 PM, Cadiz, Weather by CustomWeather, © 2014

Note: Actual official high and low records may vary slightly from our data, if they occured in-between our weather recording intervals... More about our weather records

Advertising

Cadiz weather history for previous 24 hours

 ConditionsComfort  
Time TempWeatherWind HumidityBarometerVisibility
4:00 PM
Sep 30
84 °FScattered clouds.9 mph45%30.07 "HgN/A
3:00 PM84 °FScattered clouds.8 mph45%30.09 "HgN/A
2:00 PM82 °FPassing clouds.9 mph48%30.12 "HgN/A
1:00 PM79 °FPassing clouds.8 mph58%30.12 "HgN/A
12:00 PM75 °FPassing clouds.6 mph65%30.15 "HgN/A
11:00 AM72 °FScattered clouds.3 mph73%30.15 "Hg5 mi
10:00 AM66 °FPartly sunny.3 mph83%30.15 "Hg5 mi
9:00 AM64 °FPassing clouds.3 mph88%30.12 "Hg5 mi
8:00 AM64 °FClear.3 mph88%30.12 "Hg4 mi
7:00 AM63 °FClear.7 mph88%30.12 "Hg4 mi
6:00 AM64 °FClear.2 mph88%30.12 "Hg4 mi
5:00 AM64 °FClear.2 mph88%30.12 "Hg10 mi
4:00 AM66 °FClear.3 mph83%30.12 "Hg10 mi
3:00 AM66 °FClear.2 mph83%30.12 "Hg10 mi
2:00 AM68 °FClear.1 mph83%30.15 "Hg10 mi
1:00 AM70 °FClear.2 mph78%30.15 "Hg10 mi
12:00 AM70 °FClear.1 mph78%30.18 "Hg10 mi
11:00 PM
Sep 29
72 °FClear.3 mph78%30.15 "Hg10 mi
10:00 PM72 °FClear.5 mph78%30.15 "Hg10 mi
9:00 PM72 °FPassing clouds.8 mph73%30.15 "HgN/A
8:00 PM73 °FPassing clouds.10 mph74%30.12 "HgN/A
7:00 PM75 °FPassing clouds.13 mph61%30.12 "HgN/A
6:00 PM77 °FPassing clouds.13 mph61%30.12 "HgN/A
5:00 PM77 °FPassing clouds.13 mph61%30.12 "HgN/A
Weather by CustomWeather, © 2014

See weather overviewHow to use our weather pages